Satellite-Ground Cal/Val Region Overpasses Predictions

Prediction of Satellite NPP Overpassing Cal/Val Region: PacNW

Region Location: (Latitude: 10.00, Longitude: 139.50) to (Latitude: 22.70, Longitude: 165.60).

Table of predicted overpasses for the next 14.0 days since TLE Epoch: 5/20/2023
Interval Starting Time Starting Location Ending Time Ending Location
1 05/20/2023 15:06:42 ( 22.66, 158.77) 05/20/2023 15:10:16 ( 10.04, 155.77)
2 05/21/2023 02:16:39 ( 13.16, 165.59) 05/21/2023 02:19:21 ( 22.66, 163.31)
3 05/21/2023 03:57:16 ( 10.05, 140.93) 05/21/2023 03:59:01 ( 16.22, 139.50)
4 05/21/2023 14:47:39 ( 22.66, 163.53) 05/21/2023 14:51:14 ( 10.04, 160.53)
5 05/22/2023 03:38:14 ( 10.05, 145.69) 05/22/2023 03:41:49 ( 22.68, 142.69)
6 05/22/2023 14:31:49 ( 11.38, 165.60) 05/22/2023 14:32:12 ( 10.03, 165.29)
7 05/22/2023 16:10:07 ( 22.64, 142.91) 05/22/2023 16:13:42 ( 10.02, 139.91)
8 05/23/2023 03:19:10 ( 10.00, 150.46) 05/23/2023 03:22:46 ( 22.68, 147.45)
9 05/23/2023 15:51:03 ( 22.70, 147.68) 05/23/2023 15:54:39 ( 10.02, 144.67)
10 05/24/2023 03:00:08 ( 10.01, 155.21) 05/24/2023 03:03:44 ( 22.69, 152.20)
11 05/24/2023 15:32:01 ( 22.69, 152.43) 05/24/2023 15:35:37 ( 10.01, 149.42)
12 05/25/2023 02:41:05 ( 10.02, 159.97) 05/25/2023 02:44:41 ( 22.70, 156.96)
13 05/25/2023 15:12:58 ( 22.68, 157.19) 05/25/2023 15:16:34 ( 10.00, 154.18)
14 05/26/2023 02:22:03 ( 10.03, 164.73) 05/26/2023 02:25:38 ( 22.65, 161.73)
15 05/26/2023 14:53:56 ( 22.67, 161.95) 05/26/2023 14:57:31 ( 10.05, 158.95)
16 05/27/2023 03:44:30 ( 10.05, 144.11) 05/27/2023 03:48:05 ( 22.67, 141.11)
17 05/27/2023 14:36:10 ( 18.15, 165.60) 05/27/2023 14:38:28 ( 10.04, 163.70)
18 05/27/2023 16:16:23 ( 22.65, 141.32) 05/27/2023 16:18:31 ( 15.14, 139.51)
19 05/28/2023 03:25:28 ( 10.06, 148.86) 05/28/2023 03:29:03 ( 22.68, 145.86)
20 05/28/2023 15:57:21 ( 22.64, 146.08) 05/28/2023 16:00:56 ( 10.02, 143.08)
21 05/29/2023 03:06:25 ( 10.01, 153.63) 05/29/2023 03:10:01 ( 22.69, 150.62)
22 05/29/2023 15:38:17 ( 22.69, 150.85) 05/29/2023 15:41:53 ( 10.01, 147.84)
23 05/30/2023 02:47:22 ( 10.02, 158.39) 05/30/2023 02:50:57 ( 22.65, 155.39)
24 05/30/2023 15:19:15 ( 22.68, 155.60) 05/30/2023 15:22:50 ( 10.06, 152.61)
25 05/31/2023 02:28:20 ( 10.04, 163.14) 05/31/2023 02:31:55 ( 22.66, 160.14)
26 05/31/2023 15:00:12 ( 22.66, 160.36) 05/31/2023 15:03:47 ( 10.04, 157.36)
27 06/01/2023 02:12:04 ( 19.86, 165.59) 06/01/2023 02:12:52 ( 22.68, 164.90)
28 06/01/2023 03:50:46 ( 10.00, 142.53) 06/01/2023 03:54:22 ( 22.69, 139.52)
29 06/01/2023 14:41:10 ( 22.65, 165.11) 06/01/2023 14:44:45 ( 10.03, 162.12)
30 06/01/2023 16:22:39 ( 22.70, 139.75) 06/01/2023 16:22:56 ( 21.70, 139.50)
31 06/02/2023 03:31:44 ( 10.02, 147.29) 06/02/2023 03:35:19 ( 22.64, 144.29)
